Weather History for KFDW - April, 2013

Change the Weather History Date:

Saturday, April 27, 2013

  Actual Average Record
Temperature  
Mean Temperature 60 °F -  
Max Temperature 64 °F 76 °F 87 °F (2011)
Min Temperature 57 °F 50 °F 46 °F (2015)
Degree Days  
Heating Degree Days 4    
Growing Degree Days 10 (Base 50)    
Moisture  
Dew Point 55 °F    
Average Humidity 83    
Maximum Humidity 100    
Minimum Humidity 56    
Precipitation  
Precipitation 0.00 in - - ()
Sea Level Pressure  
Sea Level Pressure 30.33 in    
Wind  
Wind Speed 4 mph (East)    
Max Wind Speed 9 mph    
Max Gust Speed -    
Visibility 10 miles    
Events Rain    
Averages and records for this station are not official NWS values.
T = Trace of Precipitation, MM = Missing Value Source: NWS Daily Summary

Daily Weather History Graph

Daily Weather History Graph

Search for Another Location

Airport or City:

Trip Planner

Search our weather history database for the weather conditions in past years. The results will help you decide how hot, cold, wet, or windy it might be!

Date:

Astronomy

Apr. 27, 2013 Rise Set
Actual Time 6:38 AM EDT 8:05 PM EDT
Civil Twilight 6:12 AM EDT 8:32 PM EDT
Nautical Twilight 5:40 AM EDT 9:04 PM EDT
Astronomical Twilight 5:07 AM EDT 9:37 PM EDT
Moon 10:28 PM EDT (4/27) 8:00 AM EDT (4/27)
Length of Visible Light 14h 20m
Length of Day
13h 27m
Waning Gibbous, 95% of the Moon is Illuminated
Apr 27
Waning Gibbous
May 2
Last Quarter
May 9
New
May 18
First Quarter
May 25
Full

Hourly Weather History & Observations

Time (EDT) Temp. Dew Point Humidity Pressure Visibility Wind Dir Wind Speed Gust Speed Precip Events Conditions
12:15 AM 64.4 °F 48.2 °F 56% 30.33 in 10.0 mi ESE 5.8 mph - N/A   Clear
12:35 AM 62.6 °F 50.0 °F 63% 30.33 in 10.0 mi SE 8.1 mph - N/A   Clear
12:55 AM 62.6 °F 50.0 °F 63% 30.35 in 10.0 mi SE 5.8 mph - N/A   Clear
1:15 AM 62.6 °F 50.0 °F 63% 30.35 in 10.0 mi SSE 4.6 mph - N/A   Clear
1:35 AM 62.6 °F 50.0 °F 63% 30.36 in 10.0 mi SSE 5.8 mph - N/A   Clear
1:55 AM 62.6 °F 50.0 °F 63% 30.35 in 10.0 mi SSE 5.8 mph - N/A   Clear
2:15 AM 62.6 °F 50.0 °F 63% 30.35 in 10.0 mi SSE 4.6 mph - N/A   Clear
2:35 AM 62.6 °F 48.2 °F 59% 30.34 in 10.0 mi SSE 4.6 mph - N/A   Clear
2:55 AM 62.6 °F 48.2 °F 59% 30.35 in 10.0 mi South 4.6 mph - N/A   Clear
3:15 AM 60.8 °F 48.2 °F 63% 30.34 in 10.0 mi Calm Calm - N/A   Clear
3:35 AM 60.8 °F 48.2 °F 63% 30.33 in 10.0 mi SSE 4.6 mph - N/A   Clear
3:55 AM 60.8 °F 50.0 °F 68% 30.33 in 10.0 mi SSE 4.6 mph - N/A   Clear
4:15 AM 60.8 °F 50.0 °F 68% 30.33 in 10.0 mi Calm Calm - N/A   Clear
4:35 AM 59.0 °F 50.0 °F 72% 30.34 in 10.0 mi Calm Calm - N/A   Clear
4:55 AM 59.0 °F 50.0 °F 72% 30.34 in 10.0 mi South 3.5 mph - N/A   Clear
5:15 AM 59.0 °F 50.0 °F 72% 30.34 in 10.0 mi Calm Calm - N/A Rain Light Rain
5:35 AM 59.0 °F 50.0 °F 72% 30.33 in 10.0 mi South 8.1 mph - N/A   Light Drizzle
5:55 AM 60.8 °F 51.8 °F 72% 30.33 in 10.0 mi South 4.6 mph - N/A   Scattered Clouds
6:15 AM 59.0 °F 50.0 °F 72% 30.33 in 10.0 mi South 3.5 mph - N/A   Scattered Clouds
6:35 AM 59.0 °F 51.8 °F 77% 30.33 in 10.0 mi Calm Calm - N/A Rain Light Rain
6:55 AM 57.2 °F 53.6 °F 88% 30.34 in 10.0 mi Calm Calm - N/A   Drizzle
7:55 AM 57.2 °F 53.6 °F 88% 30.36 in 10.0 mi Calm Calm - N/A Rain Light Rain
8:15 AM 57.2 °F 55.4 °F 94% 30.37 in 10.0 mi Calm Calm - N/A Rain Light Rain
8:35 AM 57.2 °F 55.4 °F 94% 30.37 in 10.0 mi Calm Calm - N/A   Drizzle
8:55 AM 59.0 °F 55.4 °F 88% 30.38 in 10.0 mi Calm Calm - N/A   Light Drizzle
9:15 AM 59.0 °F 57.2 °F 94% 30.38 in 10.0 mi Calm Calm - N/A   Light Drizzle
9:35 AM 59.0 °F 55.4 °F 88% 30.37 in 10.0 mi Calm Calm - N/A   Clear
9:55 AM 60.8 °F 53.6 °F 77% 30.35 in 10.0 mi Calm Calm - N/A   Clear
10:15 AM 60.8 °F 53.6 °F 77% 30.36 in 10.0 mi Calm Calm - N/A   Clear
10:35 AM 60.8 °F 53.6 °F 77% 30.35 in 10.0 mi Calm Calm - N/A   Clear
10:55 AM 60.8 °F 55.4 °F 82% 30.36 in 10.0 mi NW 4.6 mph - N/A   Scattered Clouds
11:35 AM 60.8 °F 53.6 °F 77% 30.36 in 10.0 mi Calm Calm - N/A   Clear
11:55 AM 62.6 °F 53.6 °F 72% 30.35 in 10.0 mi Calm Calm - N/A   Clear
12:15 PM 62.6 °F 53.6 °F 72% 30.35 in 10.0 mi Calm Calm - N/A   Clear
12:35 PM 64.4 °F 55.4 °F 73% 30.36 in 10.0 mi Calm Calm - N/A   Clear
12:55 PM 64.4 °F 55.4 °F 73% 30.35 in 10.0 mi Calm Calm - N/A   Clear
1:15 PM 64.4 °F 55.4 °F 73% 30.34 in 10.0 mi Calm Calm - N/A   Clear
1:35 PM 64.4 °F 55.4 °F 73% 30.34 in 10.0 mi Calm Calm - N/A   Clear
1:55 PM 64.4 °F 55.4 °F 73% 30.34 in 10.0 mi Calm Calm - N/A   Clear
2:15 PM 64.4 °F 55.4 °F 73% 30.34 in 10.0 mi WNW 3.5 mph - N/A   Clear
2:35 PM 64.4 °F 55.4 °F 73% 30.33 in 10.0 mi Calm Calm - N/A   Clear
2:55 PM 64.4 °F 55.4 °F 73% 30.34 in 10.0 mi Calm Calm - N/A   Clear
3:15 PM 64.4 °F 57.2 °F 77% 30.34 in 10.0 mi Calm Calm - N/A   Clear
3:35 PM 64.4 °F 59.0 °F 83% 30.34 in 10.0 mi NW 3.5 mph - N/A Rain Light Rain
3:55 PM 62.6 °F 60.8 °F 94% 30.34 in 10.0 mi NW 3.5 mph - N/A Rain Light Rain
4:15 PM 62.6 °F 60.8 °F 94% 30.34 in 10.0 mi NNW 4.6 mph - N/A   Light Drizzle
4:35 PM 62.6 °F 60.8 °F 94% 30.33 in 10.0 mi North 5.8 mph - N/A Rain Light Rain
4:55 PM 60.8 °F 60.8 °F 100% 30.33 in 10.0 mi NNW 6.9 mph - N/A Rain Light Rain
5:15 PM 60.8 °F 60.8 °F 100% 30.33 in 10.0 mi North 5.8 mph - N/A Rain Light Rain
5:35 PM 60.8 °F 60.8 °F 100% 30.32 in 10.0 mi North 4.6 mph - N/A Rain Light Rain
5:55 PM 60.8 °F 60.8 °F 100% 30.31 in 10.0 mi NNE 3.5 mph - N/A Rain Light Rain
6:15 PM 60.8 °F 60.8 °F 100% 30.30 in 10.0 mi NNE 4.6 mph - N/A   Clear
6:35 PM 60.8 °F 60.8 °F 100% 30.30 in 10.0 mi NNE 3.5 mph - N/A   Clear
6:55 PM 60.8 °F 60.8 °F 100% 30.30 in 10.0 mi Calm Calm - N/A   Clear
7:35 PM 60.8 °F 60.8 °F 100% 30.29 in 10.0 mi NNE 4.6 mph - N/A   Clear
7:55 PM 60.8 °F 60.8 °F 100% 30.27 in 10.0 mi NE 8.1 mph - N/A   Clear
8:15 PM 60.8 °F 60.8 °F 100% 30.27 in 10.0 mi ENE 4.6 mph - N/A   Clear
8:35 PM 60.8 °F 60.8 °F 100% 30.27 in 10.0 mi ENE 5.8 mph - N/A   Scattered Clouds
8:55 PM 60.8 °F 60.8 °F 100% 30.27 in 10.0 mi NE 8.1 mph - N/A   Scattered Clouds
9:15 PM 60.8 °F 60.8 °F 100% 30.28 in 7.0 mi ENE 6.9 mph - N/A   Scattered Clouds
9:35 PM 60.8 °F 60.8 °F 100% 30.28 in 7.0 mi ENE 9.2 mph - N/A   Scattered Clouds
9:55 PM 60.8 °F 60.8 °F 100% 30.28 in 7.0 mi ENE 5.8 mph - N/A   Scattered Clouds
10:15 PM 60.8 °F 60.8 °F 100% 30.28 in 7.0 mi ENE 6.9 mph - N/A   Scattered Clouds
10:35 PM 59.0 °F 59.0 °F 100% 30.28 in 7.0 mi ENE 5.8 mph - N/A   Scattered Clouds
10:55 PM 59.0 °F 59.0 °F 100% 30.27 in 10.0 mi East 8.1 mph - N/A   Scattered Clouds
11:15 PM 59.0 °F 59.0 °F 100% 30.26 in 10.0 mi East 6.9 mph - N/A   Scattered Clouds
11:35 PM 59.0 °F 59.0 °F 100% 30.25 in 10.0 mi East 6.9 mph - N/A   Scattered Clouds
11:55 PM 59.0 °F 59.0 °F 100% 30.25 in 10.0 mi East 5.8 mph - N/A   Scattered Clouds